Regional Weather Roundup
Issued by NWS

Home | Current Version | Previous Version | Graphics & Text | Print | Product List | Glossary On
Versions: 1 2 3 4 5 6 7 8 9 10 11 12 13 14 15 16 17 18 19 20 21 22 23 24 25 26 27 28 29 30 31 32 33 34 35 36 37 38 39 40 41 42 43 44 45 46 47 48 49 50
000
ASUS45 KPSR 201600
RWRAZ

PRELIMINARY ARIZONA REGIONAL HOURLY WEATHER ROUNDUP
NATIONAL WEATHER SERVICE PHOENIX AZ
900 AM MST MON OCT 20 2014

NOTE: FAIR INDICATES FEW OR NO CLOUDS BELOW 12,000 FEET WITH NO
SIGNIFICANT WEATHER AND/OR OBSTRUCTIONS TO VISIBILITY.

AZZ001>003-036-201700-
NORTHWEST ARIZONA

CITY           SKY/WX    TMP DP  RH WIND       PRES   REMARKS
KINGMAN        SUNNY     69  44  40 SE15      30.03R
$$

AZZ004>008-015-016-018-201700-
NORTH CENTRAL ARIZONA

CITY           SKY/WX    TMP DP  RH WIND       PRES   REMARKS
GRAND CANYON   SUNNY     58  40  51 E8        30.21R
PRESCOTT       SUNNY     61  41  47 CALM      30.13R
FLAGSTAFF      SUNNY     54  39  57 NE5       30.22R
PAYSON         SUNNY     61  43  51 SE7       30.16R
$$

AZZ009>014-017-201700-
NORTHEAST ARIZONA

CITY           SKY/WX    TMP DP  RH WIND       PRES   REMARKS
WINSLOW        NOT AVBL
SAINT JOHNS    CLOUDY    48  45  89 CALM      30.18R
WINDOW ROCK    MOSUNNY   49  38  65 CALM      30.25R
$$

AZZ023-201700-
GREATER PHOENIX AREA

CITY           SKY/WX    TMP DP  RH WIND       PRES   REMARKS
PHOENIX        SUNNY     76  53  44 E10       29.92R
GLENDALE       SUNNY     72  55  56 CALM      29.95R
DEER VALLEY    SUNNY     76  48  37 E6        29.94R
SCOTTSDALE     SUNNY     74  51  44 CALM      29.95R
MESA-FALCON    SUNNY     72  48  43 N12       29.93R
MESA-GATEWAY   SUNNY     72  52  49 CALM      29.96R
CHANDLER       SUNNY     73  54  49 CALM      29.94R
$$

AZZ027-028-201700-
SOUTHWEST MARICOPA COUNTY AND PINAL COUNTY

CITY           SKY/WX    TMP DP  RH WIND       PRES   REMARKS
CASA GRANDE    SUNNY     72  48  43 E8        29.95R
GILA BEND      SUNNY     72  52  49 SE8       29.90S
$$

AZZ503-504-507>509-201700-
SOUTHEAST ARIZONA

CITY           SKY/WX    TMP DP  RH WIND       PRES   REMARKS
TUCSON         SUNNY     72  50  45 SE15      30.00R
RYAN FIELD       N/A     72  54  53 E9        29.99R
NOGALES        SUNNY     65  47  52 CALM      30.03S
SAFFORD        SUNNY     64  51  62 SE10      30.07R
$$

AZZ020-021-025-026-031-201700-
SOUTHWEST ARIZONA

CITY           SKY/WX    TMP DP  RH WIND       PRES   REMARKS
YUMA           SUNNY     82  52  35 E7        29.86R
$$

CAZ031-033-041-043-047-048-061-201700-
SOUTHERN CALIFORNIA

CITY           SKY/WX    TMP DP  RH WIND       PRES   REMARKS
DOWNTOWN L.A.  CLOUDY    67  60  78 CALM      29.93R
L.A. AIRPORT   CLOUDY    68  61  78 E5        29.94R
SAN DIEGO      CLOUDY    69  61  75 VRB3      29.96R
BURBANK        CLOUDY    62  58  86 VRB3      29.95R FOG
ONTARIO        CLOUDY    61  60  97 CALM      29.96R FOG
RIVERSIDE      CLOUDY    62  59  90 CALM      29.96R FOG
PALM SPRINGS   SUNNY     76  50  40 E8        29.89R
EL CENTRO NAS  SUNNY     74  62  66 E5        29.84R
IMPERIAL       SUNNY     74  63  68 SE6       29.84R
BLYTHE         SUNNY     77  54  44 NE3       29.88R
$$

NVZ020-UTZ003-201700-
SOUTHERN NEVADA-UTAH

CITY           SKY/WX    TMP DP  RH WIND       PRES   REMARKS
LAS VEGAS      NOT AVBL
SALT LAKE CITY MOSUNNY   62  40  44 SE10      30.06R
$$

NMZ009-TXZ055-201700-
NEW MEXICO-WEST TEXAS

CITY           SKY/WX    TMP DP  RH WIND       PRES   REMARKS
ALBUQUERQUE    PTSUNNY   57  42  57 NW7       30.20F
EL PASO        MOSUNNY   63  55  75 N8        30.11R
$$


........................KEY........................
SKY/WX - SKY CONDITION/WEATHER
TMP    - TEMPERATURE IN FAHRENHEIT
DP     - DEW POINT IN FAHRENHEIT
RH     - RELATIVE HUMIDITY IN PERCENT
WIND   - DIRECTION AND SPEED IN MILES PER HOUR (MPH)
VRB    - VARIABLE WIND DIRECTION
PRES   - MEAN SEA LEVEL PRESSURE IN INCHES OF MERCURY
         F - FALLING PRESSURE   R - RISING PRESSURE
         S - STEADY PRESSURE
VSB    - VISIBILITY IN MILES
HX     - HEAT INDEX IN FAHRENHEIT
WCI    - WIND CHILL INDEX IN FAHRENHEIT
TC     - TEMPERATURE IN CELSIUS WHICH IS ALSO KNOWN AS
         TEMPERATURE IN CENTIGRADE
AFB    - AIR FORCE BASE
         LUKE AFB IS LUKE AIR FORCE BASE
         DAVIS-MONTHAN IS DAVIS-MONTHAN AIR FORCE BASE
NAS    - NAVAL AIR STATION
         EL CENTRO NAS IS EL CENTRO NAVAL AIR STATION
N/A    - NOT AVAILABLE



USA.gov is the U.S. government's official web portal to all federal, state and local government web resources and services.